Location: Coll
(42.4728°N, 0.7714°E)
Time: 12:31:48
(UTC+00:00)

Cosmos 2251 Rocket - Pass Details

Date: 23 October 2020
Orbit: 766 x 791 km, 74.0° (Epoch: 30 November)

Event Time Altitude Azimuth Distance (km) Brightness Sun altitude
Rises 05:08:44 0° 185° (S) 3,272 6.7 -13.7°
Reaches altitude 10° 05:11:09 10° 181° (S) 2,347 6.1 -13.3°
Maximum altitude 05:16:21 55° 105° (ESE) 944 4.4 -12.3°
Drops below altitude 10° 05:21:34 10° 29° (NNE) 2,354 6.3 -11.4°
Sets 05:24:00 0° 25° (NNE) 3,284 7.0 -10.9°
